When you browse on this site, cookies collect data to enhance your experience and personalize the content and advertising you see.
Visit our Privacy Policy to learn more. By continuing to use the site, you agree to this use of cookies and data.
  • In Hungary
  • List of Countries
  • For 7 days
  • Water Temperature
  • Satellite Maps
  • Weather Map
  • News
  • Weather Widgets
  • user-avatar
    Login

    Hourly Weather Wilkowice

    Today, 18 November, Sunday

    Time Temperature Precipitation Wind Pressure Humidity
    00:00 -4°C° 0 mm 2 mps 725 mmHg 62%
    01:00 -4°C° 0 mm 2 mps 725 mmHg 66%
    02:00 -4°C° 0 mm 2 mps 725 mmHg 67%
    03:00 -4°C° 0 mm 2 mps 724 mmHg 68%
    04:00 -2°C° 0 mm 1 mps 724 mmHg 69%
    05:00 -2°C° 0 mm 1 mps 723 mmHg 70%
    06:00 -2°C° 0 mm 1 mps 723 mmHg 71%
    07:00 -2°C° 0 mm 1 mps 723 mmHg 70%
    08:00 -1°C° 0 mm 1 mps 723 mmHg 65%
    09:00 0°C° 0 mm 1 mps 722 mmHg 61%
    10:00 -1°C° 0 mm 2 mps 722 mmHg 56%
    11:00 +1°C° 0 mm 2 mps 722 mmHg 55%
    12:00 +2°C° 0 mm 2 mps 721 mmHg 54%
    13:00 +2°C° 0 mm 2 mps 721 mmHg 53%
    14:00 +1°C° 0.1 mm 2 mps 720 mmHg 57%
    15:00 +1°C° 0.1 mm 2 mps 719 mmHg 62%
    16:00 -1°C° 0.1 mm 2 mps 719 mmHg 66%
    17:00 -2°C° 0.1 mm 2 mps 719 mmHg 66%
    18:00 -2°C° 0.1 mm 2 mps 718 mmHg 65%
    19:00 -2°C° 0.1 mm 2 mps 718 mmHg 65%
    20:00 -2°C° 0 mm 2 mps 718 mmHg 66%
    21:00 -3°C° 0 mm 2 mps 717 mmHg 68%
    22:00 -3°C° 0 mm 2 mps 717 mmHg 69%
    23:00 -3°C° 0 mm 2 mps 717 mmHg 71%

    Tomorrow, 19 November, Monday

    Time Temperature Precipitation Wind Pressure Humidity
    00:00 -3°C° 0 mm 2 mps 717 mmHg 73%
    01:00 -3°C° 0 mm 2 mps 716 mmHg 75%
    02:00 -4°C° 0 mm 2 mps 716 mmHg 76%
    03:00 -4°C° 0 mm 2 mps 716 mmHg 78%
    04:00 -4°C° 0 mm 2 mps 716 mmHg 79%
    05:00 -4°C° 0 mm 2 mps 715 mmHg 81%
    06:00 -5°C° 0 mm 2 mps 715 mmHg 83%
    07:00 -5°C° 0 mm 2 mps 715 mmHg 85%
    08:00 -5°C° 0 mm 3 mps 715 mmHg 78%
    09:00 -4°C° 0 mm 3 mps 716 mmHg 72%
    10:00 -2°C° 0 mm 3 mps 716 mmHg 66%
    11:00 -2°C° 0 mm 4 mps 716 mmHg 64%
    12:00 -2°C° 0 mm 4 mps 716 mmHg 62%
    13:00 -1°C° 0 mm 4 mps 716 mmHg 60%
    14:00 -2°C° 0 mm 4 mps 716 mmHg 65%
    15:00 -2°C° 0 mm 3 mps 716 mmHg 69%
    16:00 -2°C° 0 mm 3 mps 716 mmHg 73%
    17:00 -4°C° 0 mm 3 mps 716 mmHg 75%
    18:00 -4°C° 0 mm 3 mps 716 mmHg 78%
    19:00 -4°C° 0 mm 3 mps 716 mmHg 80%
    20:00 -4°C° 0 mm 3 mps 717 mmHg 82%
    21:00 -5°C° 0 mm 3 mps 717 mmHg 83%
    22:00 -4°C° 0 mm 2 mps 717 mmHg 85%
    23:00 -5°C° 0 mm 3 mps 717 mmHg 85%

    Day after tomorrow, 20 November, Tuesday

    Time Temperature Precipitation Wind Pressure Humidity
    00:00 -5°C° 0 mm 3 mps 717 mmHg 85%
    01:00 -5°C° 0 mm 3 mps 717 mmHg 85%
    02:00 -5°C° 0 mm 3 mps 716 mmHg 86%
    03:00 -5°C° 0 mm 3 mps 716 mmHg 87%
    04:00 -5°C° 0 mm 3 mps 716 mmHg 89%
    05:00 -4°C° 0 mm 3 mps 716 mmHg 88%
    06:00 -4°C° 0 mm 3 mps 715 mmHg 87%
    07:00 -4°C° 0 mm 3 mps 715 mmHg 87%
    08:00 -3°C° 0 mm 4 mps 715 mmHg 82%
    09:00 -3°C° 0 mm 4 mps 715 mmHg 78%
    10:00 -2°C° 0 mm 4 mps 714 mmHg 73%
    11:00 -1°C° 0.1 mm 4 mps 714 mmHg 71%
    12:00 0°C° 0.1 mm 4 mps 714 mmHg 70%
    13:00 0°C° 0.1 mm 4 mps 713 mmHg 68%
    14:00 0°C° 0.5 mm 4 mps 713 mmHg 72%
    15:00 -1°C° 0.5 mm 4 mps 713 mmHg 77%
    16:00 -1°C° 0.5 mm 4 mps 713 mmHg 81%
    17:00 0°C° 0.6 mm 3 mps 712 mmHg 83%
    18:00 0°C° 0.6 mm 3 mps 712 mmHg 86%
    19:00 0°C° 0.6 mm 3 mps 712 mmHg 88%
    20:00 0°C° 0.1 mm 3 mps 712 mmHg 89%
    21:00 +1°C° 0.1 mm 2 mps 712 mmHg 90%
    22:00 +1°C° 0.1 mm 2 mps 713 mmHg 90%
    23:00 +1°C° 0 mm 2 mps 713 mmHg 90%

    21 November, Wednesday

    Time Temperature Precipitation Wind Pressure Humidity
    00:00 +1°C° 0 mm 2 mps 713 mmHg 90%
    01:00 +1°C° 0 mm 2 mps 713 mmHg 90%
    02:00 +1°C° 0 mm 2 mps 713 mmHg 91%
    03:00 +1°C° 0 mm 2 mps 713 mmHg 91%
    04:00 -1°C° 0 mm 2 mps 713 mmHg 91%
    05:00 +1°C° 0 mm 2 mps 714 mmHg 92%
    06:00 +1°C° 0 mm 2 mps 714 mmHg 92%
    07:00 +1°C° 0 mm 2 mps 714 mmHg 92%
    08:00 +1°C° 0 mm 2 mps 715 mmHg 91%
    09:00 +2°C° 0 mm 2 mps 715 mmHg 89%
    10:00 +3°C° 0 mm 2 mps 716 mmHg 87%
    11:00 +3°C° 0 mm 2 mps 716 mmHg 86%
    12:00 +3°C° 0 mm 2 mps 716 mmHg 86%
    13:00 +3°C° 0 mm 3 mps 716 mmHg 85%
    14:00 +2°C° 0 mm 3 mps 716 mmHg 87%
    15:00 +1°C° 0 mm 3 mps 716 mmHg 89%
    16:00 +1°C° 0 mm 3 mps 716 mmHg 92%
    17:00 0°C° 0 mm 3 mps 716 mmHg 92%
    18:00 0°C° 0 mm 3 mps 716 mmHg 93%
    19:00 0°C° 0 mm 3 mps 717 mmHg 93%
    20:00 0°C° 0 mm 3 mps 717 mmHg 93%
    21:00 -1°C° 0 mm 3 mps 717 mmHg 93%
    22:00 -1°C° 0 mm 3 mps 717 mmHg 93%
    23:00 -1°C° 0 mm 3 mps 717 mmHg 93%

    22 November, Thursday

    Time Temperature Precipitation Wind Pressure Humidity
    00:00 0°C° 0 mm 3 mps 717 mmHg 93%
    01:00 +1°C° 0 mm 2 mps 717 mmHg 92%
    02:00 +1°C° 0 mm 2 mps 717 mmHg 92%
    03:00 +1°C° 0 mm 2 mps 717 mmHg 92%
    04:00 +1°C° 0 mm 2 mps 718 mmHg 92%
    05:00 +1°C° 0 mm 2 mps 718 mmHg 92%
    06:00 +1°C° 0 mm 2 mps 718 mmHg 92%
    07:00 -1°C° 0 mm 2 mps 718 mmHg 92%
    08:00 +1°C° 0 mm 2 mps 718 mmHg 90%
    09:00 +2°C° 0 mm 2 mps 719 mmHg 88%
    10:00 +2°C° 0 mm 2 mps 719 mmHg 86%
    11:00 +3°C° 0 mm 2 mps 719 mmHg 85%
    12:00 +3°C° 0 mm 2 mps 719 mmHg 84%
    13:00 +4°C° 0 mm 2 mps 719 mmHg 83%
    14:00 +3°C° 0 mm 2 mps 719 mmHg 86%
    15:00 +3°C° 0 mm 2 mps 720 mmHg 88%
    16:00 +2°C° 0 mm 2 mps 720 mmHg 90%
    17:00 +2°C° 0.1 mm 2 mps 720 mmHg 91%
    18:00 +2°C° 0.1 mm 2 mps 720 mmHg 92%
    19:00 +1°C° 0.1 mm 2 mps 720 mmHg 92%
    20:00 +1°C° 0.1 mm 2 mps 721 mmHg 92%
    21:00 +2°C° 0.1 mm 2 mps 721 mmHg 92%
    22:00 +2°C° 0.1 mm 2 mps 721 mmHg 92%
    23:00 +3°C° 0.1 mm 1 mps 721 mmHg 92%

    23 November, Friday

    Time Temperature Precipitation Wind Pressure Humidity
    00:00 +3°C° 0.1 mm 1 mps 721 mmHg 93%
    01:00 +3°C° 0.1 mm 1 mps 721 mmHg 93%
    02:00 +3°C° 0.1 mm 1 mps 721 mmHg 93%
    03:00 +3°C° 0.1 mm 1 mps 721 mmHg 93%
    04:00 +3°C° 0.1 mm 1 mps 722 mmHg 93%
    05:00 +3°C° 0 mm 1 mps 722 mmHg 94%
    06:00 +3°C° 0 mm 1 mps 722 mmHg 94%
    07:00 +3°C° 0 mm 1 mps 722 mmHg 94%
    08:00 +4°C° 0 mm 1 mps 722 mmHg 92%
    09:00 +5°C° 0 mm 1 mps 723 mmHg 90%
    10:00 +5°C° 0 mm 1 mps 723 mmHg 88%
    11:00 +6°C° 0 mm 1 mps 723 mmHg 86%
    12:00 +7°C° 0 mm 1 mps 723 mmHg 84%
    13:00 +7°C° 0 mm 1 mps 722 mmHg 82%
    14:00 +7°C° 0 mm 1 mps 722 mmHg 85%
    15:00 +6°C° 0 mm 1 mps 722 mmHg 88%
    16:00 +6°C° 0 mm 1 mps 722 mmHg 91%
    17:00 +6°C° 0 mm 1 mps 722 mmHg 91%
    18:00 +5°C° 0 mm 1 mps 721 mmHg 92%
    19:00 +5°C° 0 mm 1 mps 721 mmHg 92%
    20:00 +5°C° 0 mm 1 mps 721 mmHg 92%
    21:00 +5°C° 0 mm 1 mps 721 mmHg 92%
    22:00 +5°C° 0 mm 1 mps 721 mmHg 92%
    23:00 +5°C° 0 mm 1 mps 720 mmHg 92%
    Show more